﻿13:14:00,13225.051,468.63928,2149.8767,35.48109,-119.014
13:14:01,13209.118,469.90561,2148.9973,35.48109,-119.014
13:14:02,13200.114,469.16312,2149.801,35.48109,-119.014
13:14:03,13187.944,469.36179,2150.6211,35.48109,-119.014
13:14:04,13167.463,471.52405,2149.4436,35.48109,-119.014
13:14:05,13166.866,468.65326,2151.8599,35.48109,-119.01385
13:14:06,13181.246,469.99237,2150.0117,35.48109,-119.01385
13:14:07,13188.05,469.7146,2170.8506,35.48137,-119.01352
13:14:08,13195.63,469.95233,2834.8882,35.4815,-119.01336
13:14:09,13204.159,469.32935,3442.0669,35.48164,-119.0132
13:14:10,13210.612,467.66852,2578.3069,35.48177,-119.01305
13:14:11,13208.837,469.34799,2220.4597,35.48177,-119.01305
13:14:12,13195.19,470.26334,2165.1853,35.4819,-119.01289
13:14:13,13174.519,471.69858,2158.5635,35.48217,-119.0126
13:14:14,13159.412,470.95627,2156.2441,35.4823,-119.01245
13:14:15,13150.421,468.13147,2154.1272,35.48242,-119.0123
13:14:16,13140.229,469.14389,2152.667,35.48242,-119.0123
13:14:17,13137.703,467.76028,2155.1677,35.48266,-119.01201
13:14:18,13136.325,468.52887,2155.137,35.48266,-119.01201
13:14:19,13142.741,468.43982,2154.9585,35.4829,-119.01172
13:14:20,13140.197,468.59479,2156.4011,35.48302,-119.01158
13:14:21,13133.619,469.23196,2156.8469,35.48314,-119.01143
13:14:22,13149.254,468.23117,2156.8667,35.48326,-119.01129
13:14:23,13173.672,468.68472,2157.124,35.48326,-119.01129
13:14:24,13184.531,468.86404,2160.2495,35.48349,-119.01099
13:14:25,13195.354,467.32199,2165.4104,35.48349,-119.01099
13:14:26,13199.237,469.06104,2162.2378,35.48372,-119.01069
13:14:27,13209.576,465.20859,2161.262,35.48382,-119.01055
13:14:28,13224.855,468.89389,2161.6912,35.48393,-119.01041
13:14:29,13246.252,467.31982,2172.5928,35.48403,-119.01027
13:14:30,13251.301,470.07462,2186.9756,35.48403,-119.01027
13:14:31,13244.603,470.20407,2162.2783,35.48414,-119.01013
13:14:32,13240.638,468.95605,2158.479,35.48435,-119.00983
13:14:33,13248.795,466.74203,2159.9619,35.48444,-119.0097
13:14:34,13268.654,468.57309,2164.3955,35.48452,-119.00959
13:14:35,13271.247,468.72952,2168.959,35.48452,-119.00959
13:14:36,13269.973,468.50479,2181.4788,35.48466,-119.00938
13:14:37,13279.013,467.39273,2207.8345,35.48466,-119.00938
13:14:38,13284.98,467.32776,2191.7664,35.48475,-119.00924
13:14:39,13291.969,467.07626,2168.5503,35.48478,-119.00918
13:14:40,13289.358,468.9874,2168.2954,35.4848,-119.00914
13:14:41,13276.92,468.75598,2187.6289,35.4848,-119.00914
13:14:42,13266.533,470.45383,2198.447,35.4848,-119.00914
13:14:43,13259.899,472.65005,2198.5398,35.48483,-119.0091
13:14:44,13259.057,471.85736,2203.8499,35.48483,-119.0091
13:14:45,13265.57,472.24887,2195.1182,35.48486,-119.00909
13:14:46,13282.489,472.72372,2179.752,35.48486,-119.00909
13:14:47,13302.623,473.52695,2172.3154,35.48486,-119.00909
13:14:48,13310.415,471.53555,2172.6304,35.48491,-119.00911
13:14:49,13300.415,469.94296,2169.9966,35.48491,-119.00911
13:14:50,13297.163,472.37546,2170.8223,35.48491,-119.00911
13:14:51,13310.255,473.12015,2174.2971,35.48479,-119.00929
13:14:52,13316.61,472.23041,2169.9094,35.48474,-119.00936
13:14:53,13329.384,470.22614,2168.0352,35.48468,-119.00944
13:14:54,13349.838,469.11081,2167.5388,35.48468,-119.00944
13:14:55,13359.227,469.76236,2167.8711,35.48454,-119.00965
13:14:56,13371.943,469.97055,2169.0012,35.48454,-119.00965
13:14:57,13384.611,470.08801,2168.9744,35.48436,-119.0099
13:14:58,13385.283,469.08521,2167.916,35.48426,-119.01004
13:14:59,13392.413,467.83981,2168.4836,35.48416,-119.01019
13:15:00,13403.589,468.3287,2172.8374,35.48404,-119.01034
13:15:01,13408.901,468.72653,2189.0725,35.48404,-119.01034
13:15:02,13419.37,468.83176,2222.6089,35.48381,-119.01065
13:15:03,13412.72,468.72958,2224.4951,35.48381,-119.01065
13:15:04,13398.69,467.55365,2207.1848,35.48356,-119.01097
13:15:05,13376.909,469.5882,2216.4695,35.48345,-119.01112
13:15:06,13367.452,469.15591,2218.8857,35.48329,-119.01131
13:15:07,13359.273,466.98944,2175.0095,35.48316,-119.01148
13:15:08,13354.066,466.52066,2164.2495,35.48316,-119.01148
13:15:09,13370.154,467.14481,2176.7244,35.48302,-119.01165
13:15:10,13396.34,467.54736,2195.9219,35.48271,-119.01201
13:15:11,13418.27,467.22437,2179.9297,35.48256,-119.01219
13:15:12,13445.634,468.59912,2164.6626,35.4824,-119.01237
13:15:13,13460.43,467.41125,2156.8528,35.4824,-119.01237
13:15:14,13463.339,467.65814,2154.1113,35.48208,-119.01275
13:15:15,13465.305,469.62741,2153.4431,35.48208,-119.01275
13:15:16,13464.791,469.82483,2161.4685,35.48176,-119.01313
13:15:17,13458.728,469.10025,2172.9741,35.4816,-119.01332
13:15:18,13467.31,468.94373,2158.0044,35.48145,-119.01351
13:15:19,13475.877,468.38171,2156.0693,35.48129,-119.01369
13:15:20,13478.9,468.79373,2157.3777,35.48129,-119.01369
13:15:21,13467.028,470.11304,2159.7197,35.48099,-119.01406
13:15:22,13453.951,468.95532,2155.2849,35.48099,-119.01406
13:15:23,13450.538,468.72455,2156.0437,35.48067,-119.01443
13:15:24,13465.088,468.53226,2157.9446,35.48051,-119.01462
13:15:25,13464.198,469.32593,2156.9851,35.48036,-119.0148
13:15:26,13448.935,468.37201,2158.323,35.48021,-119.01498
13:15:27,13438.005,468.28735,2160.1611,35.48021,-119.01498
13:15:28,13433.948,468.8775,2158.2756,35.48006,-119.01516
13:15:29,13422.152,472.55792,2159.0442,35.47975,-119.01553
13:15:30,13405.458,470.32568,2165.2427,35.47959,-119.01572
13:15:31,13397.724,471.86786,2254.8833,35.47943,-119.01591
13:15:32,13388.537,469.75577,2623.1675,35.47943,-119.01591
13:15:33,13381.2,470.30594,3046.9529,35.47911,-119.01629
13:15:34,13377.749,470.34589,2441.6396,35.47911,-119.01629
13:15:35,13376.893,469.4458,2189.4482,35.47895,-119.01648
13:15:36,13389.436,469.05298,2159.4551,35.47895,-119.01648
13:15:37,13394.969,470.1326,2159.4636,35.47895,-119.01648
13:15:38,13381.678,471.36871,2157.1208,35.47895,-119.01648
13:15:39,13363.267,470.99841,2153.5886,35.47895,-119.01648
13:15:40,13370.131,470.31387,2152.2075,35.47895,-119.01648
13:15:41,13377.654,470.4538,2152.3064,35.47895,-119.01648
13:15:42,13366.353,472.73209,2152.7202,35.47895,-119.01648
13:15:43,13364.221,471.33249,2153.1702,35.47895,-119.01648
13:15:44,13364.154,470.20227,2151.176,35.47895,-119.01648
13:15:45,13362.863,469.57111,2150.4067,35.47895,-119.01648
13:15:46,13352.404,470.53159,2150.5039,35.47895,-119.01648
13:15:47,13349.365,469.56973,2149.8596,35.47895,-119.01648
13:15:48,13345.706,471.56335,2150.7749,35.47673,-119.01893
13:15:49,13345.098,471.01193,2151.2864,35.47673,-119.01893
13:15:50,13334.792,471.67697,2151.9431,35.47673,-119.01893
13:15:51,13324.639,471.99829,2151.7876,35.47673,-119.01893
13:15:52,13313.145,472.2439,2151.3035,35.47673,-119.01893
13:15:53,13306.161,471.26108,2151.9751,35.47673,-119.01893
13:15:54,13314.823,470.46066,2174.217,35.47673,-119.01893
13:15:55,13344.648,472.29181,2213.0608,35.47521,-119.02047
13:15:56,13363.226,469.36786,2169.8252,35.47505,-119.02063
13:15:57,13394.387,469.569,2156.2075,35.4747,-119.02095
13:15:58,13414.18,468.66028,2152.0818,35.4747,-119.02095
13:15:59,13398.634,469.78522,2150.6975,35.4745,-119.02111
13:16:00,13391.94,470.10602,2153.3652,35.47409,-119.0214
13:16:01,13382.395,470.30249,2152.741,35.47388,-119.02154
13:16:02,13356.21,468.70352,2154.8657,35.47368,-119.02167
13:16:03,13337.502,468.27356,2155.3606,35.47347,-119.02179
13:16:04,13321.619,468.9082,2153.3169,35.47326,-119.02191
13:16:05,13306.776,469.82181,2153.5452,35.47326,-119.02191
13:16:06,13319.818,468.79327,2153.5051,35.47306,-119.02202
13:16:07,13339.936,467.97821,2153.6145,35.47306,-119.02202
13:16:08,13351.428,467.7861,2151.9731,35.47306,-119.02202
13:16:09,13346.533,469.38626,2150.6294,35.47306,-119.02202
13:16:10,13337.811,467.883,2149.7773,35.47306,-119.02202
13:16:11,13334.077,468.49106,2150.6016,35.47176,-119.02272
13:16:12,13327.278,467.38022,2150.1355,35.47176,-119.02272
13:16:13,13312.053,468.78912,2149.0173,35.47138,-119.02292
13:16:14,13310.473,467.89746,2148.0618,35.47118,-119.02303
13:16:15,13296.698,467.66507,2147.335,35.47098,-119.02314
13:16:16,13303.638,467.46899,2145.8264,35.47077,-119.02326
13:16:17,13315.858,466.7879,2144.8254,35.47077,-119.02326
13:16:18,13323.333,469.51706,2144.5842,35.47056,-119.02336
13:16:19,13316.326,469.2421,2143.3792,35.47016,-119.02357
13:16:20,13285.4,470.03214,2145.6045,35.47016,-119.02357
13:16:21,13251.795,468.69263,2146.4458,35.47016,-119.02357
13:16:22,13231.274,469.73105,2148.2573,35.47016,-119.02357
13:16:23,13222.591,468.74875,2148.8213,35.47016,-119.02357
13:16:24,13229.557,470.35162,2150.4141,35.47016,-119.02357
13:16:25,13263.46,468.67728,2158.7434,35.47016,-119.02357
13:16:26,13297.2,468.09793,2159.9082,35.47016,-119.02357
13:16:27,13324.759,469.88608,2153.6326,35.47016,-119.02357
13:16:28,13332.171,470.26971,2150.2654,35.47016,-119.02357
13:16:29,13335.892,469.58264,2149.0161,35.47016,-119.02357
13:16:30,13334.408,469.10492,2150.3992,35.46791,-119.02481
13:16:31,13343.304,469.25845,2152.4077,35.46791,-119.02481
13:16:32,13340.023,470.06949,2152.7939,35.46739,-119.02502
13:16:33,13335.066,470.07074,2150.4771,35.46721,-119.02508
13:16:34,13334.542,468.10056,2145.4402,35.46703,-119.02513
13:16:35,13334.318,469.46124,2149.0681,35.46684,-119.02518
13:16:36,13365.082,469.61417,2216.1067,35.46684,-119.02518
13:16:37,13408.597,470.17065,2279.4019,35.46666,-119.02523
13:16:38,13433.96,469.4296,2219.2322,35.46627,-119.02529
13:16:39,13431.259,469.60382,2172.1021,35.46606,-119.02532
13:16:40,13425.795,469.82742,2164.2021,35.46586,-119.02535
13:16:41,13430.909,469.29266,2163.5264,35.46586,-119.02535
13:16:42,13423.311,470.02686,2166.5034,35.46547,-119.02542
13:16:43,13405.995,469.6203,2164.0996,35.46547,-119.02542
13:16:44,13405.108,471.27557,2158.1726,35.46528,-119.02546
13:16:45,13411.454,472.86276,2146.5603,35.4649,-119.02557
13:16:46,13418.367,472.81137,2142.8125,35.46471,-119.02563
13:16:47,13411.094,472.71924,2142.2727,35.46453,-119.0257
13:16:48,13379.05,473.72388,2141.9031,35.46453,-119.0257
13:16:49,13322.953,473.55875,2141.7102,35.46415,-119.02585
13:16:50,13279.599,474.49918,2143.0027,35.46415,-119.02585
13:16:51,13264.309,472.87015,2143.5413,35.46379,-119.02601
13:16:52,13259.266,473.3277,2143.4021,35.46362,-119.02609
13:16:53,13255.175,472.80313,2144.2705,35.46345,-119.02619
13:16:54,13247.657,472.43497,2144.5151,35.46328,-119.02629
13:16:55,13236.483,471.38373,2144.4988,35.46328,-119.02629
13:16:56,13223.97,472.8009,2144.2246,35.46312,-119.02639
13:16:57,13237.728,472.73587,2144.8372,35.46277,-119.02662
13:16:58,13296.146,470.99747,2146.7925,35.4626,-119.02674
13:16:59,13355.317,473.47678,2146.8774,35.46244,-119.02685
13:17:00,13400.19,474.48035,2148.8689,35.46244,-119.02685
13:17:01,13450.536,473.96997,2150.3228,35.46212,-119.02708
13:17:02,13496.178,473.68979,2151.3181,35.46212,-119.02708
13:17:03,13537.262,473.49466,2149.2556,35.46181,-119.02731
13:17:04,13553.554,474.15518,2146.845,35.46167,-119.02744
13:17:05,13552.471,473.52863,2146.7727,35.46153,-119.02757
13:17:06,13545.548,472.89026,2149.7534,35.46139,-119.02771
13:17:07,13545.373,473.18954,2156.5715,35.46139,-119.02771
13:17:08,13520.931,472.09689,2162.9448,35.46114,-119.028
13:17:09,13486.329,473.00656,2186.1282,35.46114,-119.028
13:17:10,13475.856,472.24533,2197.553,35.46089,-119.02831
13:17:11,13486.584,471.78766,2185.2273,35.46077,-119.02847
13:17:12,13481.121,472.79272,2169.1714,35.46066,-119.02865
13:17:13,13461.758,474.99261,2156.1516,35.46054,-119.02883
13:17:14,13459.31,470.29468,2160.6074,35.46054,-119.02883
13:17:15,13470.247,471.12256,2201.6772,35.46042,-119.02901
13:17:16,13483.707,470.37283,2244.946,35.46019,-119.02939
13:17:17,13470.958,470.44614,2180.032,35.46007,-119.02959
13:17:18,13429.407,470.49619,2156.3101,35.45995,-119.02979
13:17:19,13413.544,469.61902,2144.2502,35.45995,-119.02979
13:17:20,13392.679,467.90286,2139.114,35.45971,-119.03018
13:17:21,13360.997,470.19949,2138.0574,35.45971,-119.03018
13:17:22,13358.193,470.80087,2137.6582,35.45947,-119.03058
13:17:23,13364.732,470.37729,2136.218,35.45935,-119.03078
13:17:24,13365.391,470.00851,2142.1873,35.45922,-119.03098
13:17:25,13369.233,469.29465,2174.3279,35.4591,-119.03118
13:17:26,13366.198,469.91794,2297.4497,35.4591,-119.03118
13:17:27,13359.013,467.90271,2424.8413,35.45887,-119.03157
13:17:28,13372.741,470.7179,2557.6472,35.45887,-119.03157
13:17:29,13400.915,470.50208,2466.2417,35.45864,-119.03196
13:17:30,13416.625,468.27563,2344.3767,35.45852,-119.03214
13:17:31,13435.409,470.67477,2386.2373,35.45841,-119.03232
13:17:32,13430.262,469.05304,2422.2632,35.45829,-119.03249
13:17:33,13416.057,471.34079,2369.8704,35.45829,-119.03249
13:17:34,13412.949,471.28183,2261.1438,35.45817,-119.03266
13:17:35,13393.808,470.71729,2226.8347,35.45791,-119.03301
13:17:36,13357.435,470.99072,2212.1284,35.45778,-119.03318
13:17:37,13311.179,470.48306,2222.3252,35.45764,-119.03334
13:17:38,13296.517,469.29675,2244.1252,35.45764,-119.03334
13:17:39,13289.951,470.53757,2304.761,35.45735,-119.03366
13:17:40,13273.571,472.67618,2342.2803,35.45735,-119.03366
13:17:41,13255.227,471.61658,2319.4094,35.45706,-119.03397
13:17:42,13240.183,472.05634,2305.6074,35.45691,-119.03411
13:17:43,13252.626,471.20312,2267.8027,35.45676,-119.03425
13:17:44,13281.935,471.42062,2181.4819,35.4566,-119.0344
13:17:45,13289.318,471.02707,2158.9763,35.4566,-119.0344
13:17:46,13275.288,469.36407,2155.0869,35.4563,-119.03469
13:17:47,13254.848,470.099,2159.8242,35.4563,-119.03469
13:17:48,13242.381,469.3848,2165.229,35.456,-119.03498
13:17:49,13237.121,470.37,2181.5847,35.45585,-119.03512
13:17:50,13233.276,469.72516,2180.3818,35.4557,-119.03526
13:17:51,13233.026,471.70596,2165.9629,35.45555,-119.03541
13:17:52,13207.431,471.21475,2164.4663,35.45555,-119.03541
13:17:53,13172.615,471.64941,2164.3523,35.4554,-119.03554
13:17:54,13150.518,471.28094,2157.2429,35.45512,-119.03581
13:17:55,13129.138,470.01755,2159.3025,35.45498,-119.03594
13:17:56,13124.485,470.11166,2156.4824,35.45485,-119.03607
13:17:57,13119.817,468.9014,2145.9316,35.45485,-119.03607
13:17:58,13110.035,468.2691,2141.4612,35.45457,-119.0363
13:17:59,13106.339,467.89017,2134.6904,35.45457,-119.0363
13:18:00,13088.071,468.82773,2131.4771,35.45429,-119.03649
13:18:01,13068.935,471.04385,2131.2502,35.45415,-119.03658
13:18:02,13037.335,468.83072,2131.7112,35.45401,-119.03667
13:18:03,13018.297,468.24017,2134.6235,35.45387,-119.03675
13:18:04,13000.752,469.91885,2134.5415,35.45387,-119.03675
13:18:05,12976.398,469.41611,2134.0747,35.45361,-119.03694
13:18:06,12955.329,469.56177,2135.0811,35.45361,-119.03694
13:18:07,12935.085,468.74731,2136.1306,35.45338,-119.03714
13:18:08,12918.489,470.83466,2135.7102,35.45328,-119.03723
13:18:09,12883.861,469.95319,2133.6465,35.45319,-119.03732
13:18:10,12854.967,472.81879,2135.2949,35.4531,-119.03739
13:18:11,12820.737,471.04446,2134.2576,35.4531,-119.03739
13:18:12,12791.544,470.65973,2134.6316,35.45303,-119.03746
13:18:13,12785.224,471.02124,2140.6533,35.45292,-119.03756
13:18:14,12803.174,471.47501,2144.5505,35.45289,-119.0376
13:18:15,12834.6,469.57062,2143.5952,35.45286,-119.03762
13:18:16,12861.423,470.57971,2140.3054,35.45286,-119.03762
13:18:17,12867.078,470.57581,2137.4712,35.45284,-119.03765
13:18:18,12874.785,470.27069,2135.1467,35.45284,-119.03765
13:18:19,12871.895,470.57715,2132.4653,35.45282,-119.03767
13:18:20,12851.94,470.36786,2132.4236,35.45279,-119.03767
13:18:21,12854.242,470.06516,2132.0237,35.45279,-119.03767
13:18:22,12843.518,470.73361,2130.5054,35.45274,-119.03768
13:18:23,12815.748,469.54413,2130.4124,35.45274,-119.03768
13:18:24,12802.778,469.92014,2130.8005,35.45261,-119.03754
13:18:25,12806.948,469.22467,2129.6306,35.45261,-119.03754
13:18:26,12817.972,468.94498,2131.915,35.4525,-119.03736
13:18:27,12818.585,469.75342,2131.2539,35.45243,-119.03725
13:18:28,12822.238,469.57407,2132.0054,35.45236,-119.03712
13:18:29,12857.49,472.48062,2134.8679,35.45229,-119.03699
13:18:30,12897.931,486.28104,2140.7849,35.45229,-119.03699
13:18:31,12932.567,483.66037,2137.386,35.4522,-119.03684
13:18:32,12929.316,474.54544,2131.9529,35.45203,-119.03654
13:18:33,12905.864,470.38617,2130.3918,35.45193,-119.03639
13:18:34,12886.083,471.44992,2129.7319,35.45184,-119.03623
13:18:35,12879.796,468.49667,2129.9553,35.45184,-119.03623
13:18:36,12901.692,470.57675,2133.1697,35.45164,-119.0359
13:18:37,12944.107,468.95203,2138.0723,35.45164,-119.0359
13:18:38,12974.714,469.22272,2140.2173,35.45144,-119.03557
13:18:39,12970.788,468.33679,2137.1292,35.45133,-119.0354
13:18:40,12930.913,470.80054,2131.0442,35.45123,-119.03523
13:18:41,12895.826,472.58344,2133.0942,35.45112,-119.03506
13:18:42,12887.128,471.82693,2135.3059,35.45112,-119.03506
13:18:43,12893.516,471.64493,2138.4883,35.45102,-119.03489
13:18:44,12888.604,470.46338,2138.4102,35.45081,-119.03455
13:18:45,12871.672,470.67496,2138.7795,35.45071,-119.03438
13:18:46,12858.017,471.81433,2137.1406,35.4506,-119.03421
13:18:47,12861.83,470.22198,2135.3721,35.4505,-119.03405
13:18:48,12866.134,472.09552,2135.2295,35.4504,-119.03389
13:18:49,12865.804,469.99606,2134.5725,35.4504,-119.03389
13:18:50,12851.834,470.0379,2133.6196,35.4503,-119.03372
13:18:51,12837.847,469.74179,2131.7769,35.4501,-119.0334
13:18:52,12826.623,470.55276,2126.2104,35.45,-119.03324
13:18:53,12803.176,471.60971,2123.9075,35.4499,-119.03308
13:18:54,12770.291,467.97986,2120.6096,35.4499,-119.03308
13:18:55,12728.482,470.30692,2117.2778,35.4497,-119.03275
13:18:56,12692.183,470.36929,2121.3723,35.4497,-119.03275
13:18:57,12686.613,468.59393,2125.9182,35.44949,-119.03243
13:18:58,12689.75,470.87155,2127.5071,35.44939,-119.03227
13:18:59,12694.828,472.07013,2132.5625,35.44928,-119.03211
13:19:00,12704.051,472.28586,2133.0298,35.44917,-119.03195
13:19:01,12703.606,472.33777,2134.7085,35.44917,-119.03195
13:19:02,12696.266,472.65479,2133.6353,35.44907,-119.0318
13:19:03,12670.223,471.13354,2134.3396,35.44888,-119.03149
13:19:04,12671.747,472.67676,2134.4165,35.44878,-119.03134
13:19:05,12703.314,470.61026,2134.1418,35.44868,-119.0312
13:19:06,12739.163,471.7002,2135.752,35.44868,-119.0312
13:19:07,12756.479,476.36313,2134.9939,35.44849,-119.0309
13:19:08,12746.398,479.67667,2133.9333,35.44849,-119.0309
13:19:09,12733.366,476.5639,2134.4658,35.4484,-119.03076
13:19:10,12729.145,475.38162,2136.4006,35.44821,-119.03047
13:19:11,12730.106,472.72931,2139.9797,35.44811,-119.03032
13:19:12,12735.204,473.18167,2141.7241,35.44802,-119.03016
13:19:13,12743.899,477.15189,2138.5547,35.44802,-119.03016
13:19:14,12738.258,478.35971,2137.3181,35.44783,-119.02982
13:19:15,12720.698,473.86389,2138.7944,35.44783,-119.02982
13:19:16,12696.904,472.63626,2139.512,35.44762,-119.02948
13:19:17,12689.687,471.88651,2137.2168,35.44752,-119.0293
13:19:18,12674.797,471.88303,2137.9253,35.44741,-119.02913
13:19:19,12665.577,473.99835,2134.0771,35.44731,-119.02895
13:19:20,12652.488,471.95886,2133.8835,35.44731,-119.02895
13:19:21,12642.314,472.34222,2131.7783,35.44719,-119.02879
13:19:22,12634.991,472.66898,2130.0691,35.44697,-119.02844
13:19:23,12637.515,471.16391,2130.134,35.44687,-119.02826
13:19:24,12634.382,471.64499,2129.6929,35.44675,-119.02809
13:19:25,12634.825,471.47626,2130.4907,35.44675,-119.02809
13:19:26,12633.177,470.33997,2131.6042,35.44654,-119.02774
13:19:27,12634.295,474.37607,2135.707,35.44654,-119.02774
13:19:28,12641.251,471.71286,2136.9524,35.44643,-119.02756
13:19:29,12650.902,473.03873,2136.74,35.44623,-119.0272
13:19:30,12656.412,473.47293,2137.749,35.44612,-119.02703
13:19:31,12660.055,472.08878,2140.813,35.44602,-119.02686
13:19:32,12658.118,472.19543,2141.3408,35.44602,-119.02686
13:19:33,12647.912,472.02271,2139.7031,35.44581,-119.02652
13:19:34,12633.761,472.57776,2137.3464,35.44581,-119.02652
13:19:35,12624.251,471.74615,2136.8789,35.4456,-119.02618
13:19:36,12620.509,472.56305,2140.8474,35.44549,-119.02602
13:19:37,12626.699,473.6272,2141.6162,35.44538,-119.02585
13:19:38,12643.282,475.56992,2143.0383,35.44528,-119.02568
13:19:39,12665.337,474.63391,2145.6499,35.44528,-119.02568
13:19:40,12687.845,475.67093,2146.9829,35.44517,-119.02551
13:19:41,12717.689,472.69244,2144.9802,35.44495,-119.02516
13:19:42,12734.164,477.52274,2141.3374,35.44484,-119.02499
13:19:43,12746.319,478.29361,2136.7827,35.44474,-119.02483
13:19:44,12748.732,472.51337,2130.1079,35.44474,-119.02483
13:19:45,12729.806,470.3967,2122.3237,35.44451,-119.02451
13:19:46,12700.351,469.30008,2121.1165,35.44451,-119.02451
13:19:47,12666.287,469.32394,2121.2236,35.44428,-119.02421
13:19:48,12648.909,471.95828,2124.9944,35.44416,-119.02407
13:19:49,12640.617,470.1066,2127.6226,35.44404,-119.02393
13:19:50,12647.229,478.97116,2134.4636,35.44391,-119.02379
13:19:51,12668.303,484.12653,2138.9148,35.44391,-119.02379
13:19:52,12693.284,474.25131,2139.8186,35.44365,-119.02352
13:19:53,12710.13,471.72397,2138.8931,35.44365,-119.02352
13:19:54,12715.294,470.91245,2137.3506,35.44337,-119.02327
13:19:55,12713.025,470.90237,2135.2903,35.44322,-119.02314
13:19:56,12711.438,471.60773,2136.0603,35.44307,-119.02302
13:19:57,12713.192,471.12833,2137.3708,35.44292,-119.0229
13:19:58,12710.029,471.61331,2137.9924,35.44292,-119.0229
13:19:59,12701.222,469.92865,2137.6616,35.44275,-119.02281
13:20:00,12693.608,470.96783,2132.9048,35.44243,-119.0226
13:20:01,12692.836,471.60315,2127.3606,35.44227,-119.0225
13:20:02,12695.71,470.9209,2124.7451,35.44211,-119.0224
13:20:03,12705.542,470.48792,2123.6365,35.44211,-119.0224
13:20:04,12713.953,471.03827,2122.9661,35.4418,-119.02222
13:20:05,12707.498,470.07474,2120.4854,35.4418,-119.02222
13:20:06,12697.966,469.51678,2121.5393,35.44149,-119.02207
13:20:07,12698.773,471.27701,2120.7673,35.44134,-119.022
13:20:08,12692.139,471.28375,2119.5464,35.44119,-119.02193
13:20:09,12682.753,470.63583,2118.6335,35.44105,-119.02187
13:20:10,12681.341,473.50134,2117.5789,35.44105,-119.02187
13:20:11,12677.095,476.71396,2115.5122,35.44077,-119.02179
13:20:12,12663.338,475.81909,2112.7695,35.44077,-119.02179
13:20:13,12646.213,476.41238,2115.9854,35.44053,-119.0217
13:20:14,12639.509,477.15439,2120.7703,35.44043,-119.02168
13:20:15,12635.513,476.50281,2120.9612,35.44034,-119.02165
13:20:16,12630.985,475.57028,2120.8047,35.44028,-119.02163
13:20:17,12627.512,479.41006,2120.1016,35.44028,-119.02163
13:20:18,12629.46,479.31543,2119.7517,35.44022,-119.02162
13:20:19,12629.04,477.24625,2119.6384,35.44018,-119.02161
13:20:20,12630.027,479.34637,2117.7651,35.44015,-119.0216
13:20:21,12637.738,478.52881,2117.3813,35.44015,-119.0216
13:20:22,12642.773,477.94,2117.2322,35.44015,-119.0216
13:20:23,12654.099,479.95569,2117.1194,35.44015,-119.0216
13:20:24,12674.231,484.44189,2117.5845,35.44015,-119.0216
13:20:25,12684.327,478.68015,2117.1572,35.44015,-119.0216
13:20:26,12688.187,494.81668,2118.6472,35.44015,-119.0216
13:20:27,12703.338,513.12146,2128.2803,35.44015,-119.0216
13:20:28,12716.931,544.61743,2165.6541,35.44015,-119.0216
13:20:29,12725.329,505.07864,2141.1001,35.44015,-119.0216
13:20:30,12724.1,484.13895,2122.0347,35.44012,-119.0216
13:20:31,12724.499,482.68994,2119.2236,35.44012,-119.0216
13:20:32,12723.454,482.33411,2119.208,35.43999,-119.02158
13:20:33,12723.912,481.95181,2119.4946,35.43994,-119.02156
13:20:34,12725.491,478.61566,2119.4556,35.43991,-119.02137
13:20:35,12718.253,476.48358,2119.6006,35.43991,-119.02128
13:20:36,12713.201,477.56406,2120.1909,35.43991,-119.02128
13:20:37,12714.811,479.45511,2120.377,35.4399,-119.02117
13:20:38,12717.47,481.51166,2120.752,35.4399,-119.02093
13:20:39,12725.954,492.38358,2127.1562,35.4399,-119.02079
13:20:40,12727.015,498.97656,2130.6311,35.4399,-119.02063
13:20:41,12737.278,483.17349,2123.6296,35.4399,-119.02063
13:20:42,12769.276,473.2403,2120.571,35.4399,-119.02028